Time,TemperatureF,DewpointF,PressureIn,WindDirection,WindDirectionDegrees,WindSpeedMPH,WindSpeedGustMPH,Humidity,HourlyPrecipIn,Conditions,Clouds,dailyrainin,SoftwareType,DateUTC
2013-04-11 00:00:00,29.8,16.8,30.08,NNW,333,3.0,11.0,58,0.00,,---,0.00,VWS V14.00,2013-04-11 05:00:00,
2013-04-11 00:05:00,29.8,16.8,30.08,NE,45,4.0,9.0,58,0.00,,---,0.00,VWS V14.00,2013-04-11 05:05:00,
2013-04-11 00:10:00,29.9,16.9,30.07,NE,42,1.0,12.0,58,0.00,,---,0.00,VWS V14.00,2013-04-11 05:10:00,
2013-04-11 00:15:00,29.8,16.8,30.07,NNE,22,2.0,12.0,58,0.00,,---,0.00,VWS V14.00,2013-04-11 05:15:00,
2013-04-11 00:20:00,29.7,17.1,30.07,NNE,23,0.0,3.0,59,0.00,,---,0.00,VWS V14.00,2013-04-11 05:20:00,
2013-04-11 00:25:00,29.7,16.8,30.06,NE,55,2.0,5.0,58,0.00,,---,0.00,VWS V14.00,2013-04-11 05:25:00,
2013-04-11 00:30:00,29.6,16.6,30.06,ENE,58,3.0,10.0,58,0.00,,---,0.00,VWS V14.00,2013-04-11 05:30:00,
2013-04-11 00:35:00,29.6,17.0,30.06,NW,305,3.0,8.0,59,0.00,,---,0.00,VWS V14.00,2013-04-11 05:35:00,
2013-04-11 00:40:00,29.6,17.0,30.06,NE,38,1.0,10.0,59,0.00,,---,0.00,VWS V14.00,2013-04-11 05:40:00,
2013-04-11 00:45:00,29.6,17.0,30.06,NNE,22,3.0,11.0,59,0.00,,---,0.00,VWS V14.00,2013-04-11 05:45:00,
2013-04-11 00:50:00,29.5,17.3,30.05,North,360,4.0,9.0,60,0.00,,---,0.00,VWS V14.00,2013-04-11 05:50:00,
2013-04-11 00:55:00,29.5,17.0,30.06,NE,36,1.0,9.0,59,0.00,,---,0.00,VWS V14.00,2013-04-11 05:55:00,
2013-04-11 01:00:00,29.5,17.0,30.06,NNE,18,2.0,10.0,59,0.00,,---,0.00,VWS V14.00,2013-04-11 06:00:00,
2013-04-11 01:05:00,29.5,17.0,30.06,NE,36,1.0,6.0,59,0.00,,---,0.00,VWS V14.00,2013-04-11 06:05:00,
2013-04-11 01:10:00,29.5,17.3,30.04,NNE,16,0.0,9.0,60,0.00,,---,0.00,VWS V14.00,2013-04-11 06:10:00,
2013-04-11 01:15:00,29.5,17.7,30.04,NNW,340,5.0,10.0,61,0.00,,---,0.00,VWS V14.00,2013-04-11 06:15:00,
2013-04-11 01:20:00,29.4,17.6,30.04,North,355,3.0,6.0,61,0.00,,---,0.00,VWS V14.00,2013-04-11 06:20:00,
2013-04-11 01:25:00,29.4,17.2,30.04,NE,34,2.0,10.0,60,0.00,,---,0.00,VWS V14.00,2013-04-11 06:25:00,
2013-04-11 01:30:00,29.5,17.3,30.05,NNE,20,2.0,11.0,60,0.00,,---,0.00,VWS V14.00,2013-04-11 06:30:00,
2013-04-11 01:35:00,29.6,17.4,30.05,North,10,4.0,10.0,60,0.00,,---,0.00,VWS V14.00,2013-04-11 06:35:00,
2013-04-11 01:40:00,29.6,18.2,30.04,NNE,23,2.0,10.0,62,0.00,,---,0.00,VWS V14.00,2013-04-11 06:40:00,
2013-04-11 01:45:00,29.5,17.7,30.04,WSW,252,0.0,10.0,61,0.00,,---,0.00,VWS V14.00,2013-04-11 06:45:00,
2013-04-11 01:50:00,29.5,18.1,30.05,NNE,28,4.0,4.0,62,0.00,,---,0.00,VWS V14.00,2013-04-11 06:50:00,
2013-04-11 01:55:00,29.5,18.1,30.05,NNE,24,1.0,5.0,62,0.00,,---,0.00,VWS V14.00,2013-04-11 06:55:00,
2013-04-11 02:00:00,29.5,18.1,30.05,NW,324,3.0,7.0,62,0.00,,---,0.00,VWS V14.00,2013-04-11 07:00:00,
2013-04-11 02:05:00,29.5,18.5,30.04,North,360,6.0,7.0,63,0.00,,---,0.00,VWS V14.00,2013-04-11 07:05:00,
2013-04-11 02:10:00,29.5,18.5,30.03,North,350,5.0,8.0,63,0.00,,---,0.00,VWS V14.00,2013-04-11 07:10:00,
2013-04-11 02:15:00,29.4,18.7,30.04,NNE,14,4.0,8.0,64,0.00,,---,0.00,VWS V14.00,2013-04-11 07:15:00,
2013-04-11 02:20:00,29.3,18.6,30.04,NNE,17,3.0,7.0,64,0.00,,---,0.00,VWS V14.00,2013-04-11 07:20:00,
2013-04-11 02:25:00,29.3,19.0,30.03,North,355,3.0,7.0,65,0.00,,---,0.00,VWS V14.00,2013-04-11 07:25:00,
2013-04-11 02:30:00,29.3,19.0,30.03,NNE,15,0.0,7.0,65,0.00,,---,0.00,VWS V14.00,2013-04-11 07:30:00,
2013-04-11 02:35:00,29.3,19.4,30.03,NNE,21,0.0,8.0,66,0.00,,---,0.00,VWS V14.00,2013-04-11 07:35:00,
2013-04-11 02:40:00,29.2,19.3,30.03,North,355,7.0,9.0,66,0.00,,---,0.00,VWS V14.00,2013-04-11 07:40:00,
2013-04-11 02:45:00,29.2,19.6,30.03,North,360,0.0,9.0,67,0.00,,---,0.00,VWS V14.00,2013-04-11 07:45:00,
2013-04-11 02:50:00,29.2,19.6,30.03,North,5,2.0,4.0,67,0.00,,---,0.00,VWS V14.00,2013-04-11 07:50:00,
2013-04-11 02:55:00,29.2,20.0,30.03,NW,316,2.0,7.0,68,0.00,,---,0.00,VWS V14.00,2013-04-11 07:55:00,
2013-04-11 03:00:00,29.1,19.9,30.02,NNE,17,1.0,7.0,68,0.00,,---,0.00,VWS V14.00,2013-04-11 08:00:00,
2013-04-11 03:05:00,29.1,20.2,30.02,WNW,294,2.0,5.0,69,0.00,,---,0.00,VWS V14.00,2013-04-11 08:05:00,
2013-04-11 03:10:00,29.0,20.5,30.02,North,349,0.0,9.0,70,0.00,,---,0.00,VWS V14.00,2013-04-11 08:10:00,
2013-04-11 03:15:00,29.0,20.5,30.02,North,5,4.0,9.0,70,0.00,,---,0.00,VWS V14.00,2013-04-11 08:15:00,
2013-04-11 03:20:00,28.9,20.4,30.02,NW,319,0.0,6.0,70,0.00,,---,0.00,VWS V14.00,2013-04-11 08:20:00,
2013-04-11 03:25:00,28.9,20.7,30.02,NNE,14,4.0,6.0,71,0.00,,---,0.00,VWS V14.00,2013-04-11 08:25:00,
2013-04-11 03:30:00,28.9,21.0,30.01,North,360,3.0,10.0,72,0.00,,---,0.00,VWS V14.00,2013-04-11 08:30:00,
2013-04-11 03:35:00,28.8,20.9,30.00,NNE,32,1.0,2.0,72,0.00,,---,0.00,VWS V14.00,2013-04-11 08:35:00,
2013-04-11 03:40:00,28.8,21.2,30.00,NNW,342,0.0,5.0,73,0.00,,---,0.00,VWS V14.00,2013-04-11 08:40:00,
2013-04-11 03:45:00,28.8,21.2,30.00,NNW,344,0.0,7.0,73,0.00,,---,0.00,VWS V14.00,2013-04-11 08:45:00,
2013-04-11 03:50:00,28.8,21.2,30.02,NE,45,10.0,10.0,73,0.00,,---,0.00,VWS V14.00,2013-04-11 08:50:00,
2013-04-11 03:55:00,28.8,21.6,30.02,NNE,17,0.0,10.0,74,0.00,,---,0.00,VWS V14.00,2013-04-11 08:55:00,
2013-04-11 04:00:00,28.8,21.6,30.02,NNW,338,0.0,10.0,74,0.00,,---,0.00,VWS V14.00,2013-04-11 09:00:00,
2013-04-11 04:05:00,28.8,21.6,30.02,NNW,333,0.0,3.0,74,0.00,,---,0.00,VWS V14.00,2013-04-11 09:05:00,
2013-04-11 04:10:00,28.8,21.6,30.02,NNE,28,4.0,11.0,74,0.00,,---,0.00,VWS V14.00,2013-04-11 09:10:00,
2013-04-11 04:15:00,28.9,21.7,30.02,North,355,4.0,11.0,74,0.00,,---,0.00,VWS V14.00,2013-04-11 09:15:00,
2013-04-11 04:20:00,28.9,21.7,30.02,NE,41,2.0,6.0,74,0.00,,---,0.00,VWS V14.00,2013-04-11 09:20:00,
2013-04-11 04:25:00,28.9,21.7,30.02,NNE,21,5.0,10.0,74,0.00,,---,0.00,VWS V14.00,2013-04-11 09:25:00,
2013-04-11 04:30:00,29.0,21.8,30.02,NNW,340,1.0,10.0,74,0.00,,---,0.00,VWS V14.00,2013-04-11 09:30:00,
2013-04-11 04:35:00,29.0,21.8,30.02,NNW,340,4.0,9.0,74,0.00,,---,0.00,VWS V14.00,2013-04-11 09:35:00,
2013-04-11 04:40:00,29.1,21.5,30.01,NNE,15,1.0,9.0,73,0.00,,---,0.00,VWS V14.00,2013-04-11 09:40:00,
2013-04-11 04:45:00,29.1,21.5,30.00,NNE,13,4.0,11.0,73,0.00,,---,0.00,VWS V14.00,2013-04-11 09:45:00,
2013-04-11 04:50:00,29.2,21.6,30.00,North,5,0.0,4.0,73,0.00,,---,0.00,VWS V14.00,2013-04-11 09:50:00,
2013-04-11 04:55:00,29.2,21.3,30.01,NNE,19,0.0,6.0,72,0.00,,---,0.00,VWS V14.00,2013-04-11 09:55:00,
2013-04-11 05:00:00,29.3,21.4,30.00,NE,53,0.0,7.0,72,0.00,,---,0.00,VWS V14.00,2013-04-11 10:00:00,
2013-04-11 05:05:00,29.3,21.4,29.99,NNW,340,4.0,6.0,72,0.00,,---,0.00,VWS V14.00,2013-04-11 10:05:00,
2013-04-11 05:10:00,29.4,21.5,30.00,NNE,12,6.0,11.0,72,0.00,,---,0.00,VWS V14.00,2013-04-11 10:10:00,
2013-04-11 05:15:00,29.4,21.2,30.00,NE,49,1.0,11.0,71,0.00,,---,0.00,VWS V14.00,2013-04-11 10:15:00,
2013-04-11 05:20:00,29.5,21.6,30.00,NNE,19,3.0,8.0,72,0.00,,---,0.00,VWS V14.00,2013-04-11 10:20:00,
2013-04-11 05:25:00,29.5,21.3,30.01,NNE,22,6.0,9.0,71,0.00,,---,0.00,VWS V14.00,2013-04-11 10:25:00,
2013-04-11 05:30:00,29.5,21.6,30.01,ENE,63,3.0,9.0,72,0.00,,---,0.00,VWS V14.00,2013-04-11 10:30:00,
2013-04-11 05:35:00,29.5,21.6,30.00,North,5,3.0,5.0,72,0.00,,---,0.00,VWS V14.00,2013-04-11 10:35:00,
2013-04-11 05:40:00,29.5,21.6,30.01,ENE,65,0.0,6.0,72,0.00,,---,0.00,VWS V14.00,2013-04-11 10:40:00,
2013-04-11 05:45:00,29.5,21.3,30.00,NE,37,4.0,10.0,71,0.00,,---,0.00,VWS V14.00,2013-04-11 10:45:00,
2013-04-11 05:50:00,29.5,21.6,29.99,North,355,1.0,8.0,72,0.00,,---,0.00,VWS V14.00,2013-04-11 10:50:00,
2013-04-11 05:55:00,29.4,21.5,29.99,NNE,15,10.0,10.0,72,0.00,,---,0.00,VWS V14.00,2013-04-11 10:55:00,
2013-04-11 06:00:00,29.4,21.5,29.99,NNE,19,5.0,10.0,72,0.00,,---,0.00,VWS V14.00,2013-04-11 11:00:00,
2013-04-11 06:05:00,29.4,21.8,29.99,NNW,334,5.0,10.0,73,0.00,,---,0.00,VWS V14.00,2013-04-11 11:05:00,
2013-04-11 06:10:00,29.3,21.7,29.99,North,360,3.0,10.0,73,0.00,,---,0.00,VWS V14.00,2013-04-11 11:10:00,
2013-04-11 06:15:00,29.3,21.7,29.98,North,5,1.0,13.0,73,0.00,,---,0.00,VWS V14.00,2013-04-11 11:15:00,
2013-04-11 06:20:00,29.2,22.0,29.97,NE,46,3.0,10.0,74,0.00,,---,0.00,VWS V14.00,2013-04-11 11:20:00,
2013-04-11 06:25:00,29.2,22.3,29.97,North,355,4.0,10.0,75,0.00,,---,0.00,VWS V14.00,2013-04-11 11:25:00,
2013-04-11 06:30:00,29.1,22.2,29.97,NE,34,2.0,15.0,75,0.00,,---,0.00,VWS V14.00,2013-04-11 11:30:00,
2013-04-11 06:36:00,29.1,22.2,29.97,NE,34,10.0,13.0,75,0.00,,---,0.00,VWS V14.00,2013-04-11 11:36:00,
2013-04-11 06:41:00,29.0,22.1,29.98,North,351,2.0,16.0,75,0.00,,---,0.00,VWS V14.00,2013-04-11 11:41:00,
2013-04-11 06:46:00,29.0,22.1,29.96,ENE,67,3.0,16.0,75,0.00,,---,0.00,VWS V14.00,2013-04-11 11:46:00,
2013-04-11 06:51:00,29.0,22.4,29.96,ENE,59,5.0,6.0,76,0.00,,---,0.00,VWS V14.00,2013-04-11 11:51:00,
2013-04-11 06:56:00,29.0,22.4,29.95,North,351,6.0,12.0,76,0.00,,---,0.00,VWS V14.00,2013-04-11 11:56:00,
2013-04-11 07:00:00,29.0,22.4,29.94,North,355,3.0,12.0,76,0.00,,---,0.00,VWS V14.00,2013-04-11 12:00:00,
2013-04-11 07:05:00,29.0,22.4,29.94,NE,38,1.0,11.0,76,0.00,,---,0.00,VWS V14.00,2013-04-11 12:05:00,
2013-04-11 07:10:00,29.1,22.5,29.93,NE,51,5.0,13.0,76,0.00,,---,0.00,VWS V14.00,2013-04-11 12:10:00,
2013-04-11 07:15:00,29.1,22.5,29.92,ENE,76,3.0,13.0,76,0.00,,---,0.00,VWS V14.00,2013-04-11 12:15:00,
2013-04-11 07:20:00,29.0,22.4,29.91,NNE,21,5.0,17.0,76,0.00,,---,0.00,VWS V14.00,2013-04-11 12:20:00,
2013-04-11 07:25:00,29.1,22.5,29.91,NNE,21,5.0,21.0,76,0.00,,---,0.00,VWS V14.00,2013-04-11 12:25:00,
2013-04-11 07:30:00,29.1,22.5,29.91,NNE,22,4.0,21.0,76,0.00,,---,0.00,VWS V14.00,2013-04-11 12:30:00,
2013-04-11 07:35:00,29.1,22.5,29.92,ENE,69,5.0,13.0,76,0.00,,---,0.00,VWS V14.00,2013-04-11 12:35:00,
2013-04-11 07:40:00,29.1,22.5,29.94,NNE,12,1.0,13.0,76,0.00,,---,0.00,VWS V14.00,2013-04-11 12:40:00,
2013-04-11 07:45:00,29.1,22.8,29.92,ENE,71,3.0,13.0,77,0.00,,---,0.00,VWS V14.00,2013-04-11 12:45:00,
2013-04-11 07:50:00,29.2,22.3,29.92,NE,40,2.0,13.0,75,0.00,,---,0.00,VWS V14.00,2013-04-11 12:50:00,
2013-04-11 07:55:00,29.2,22.6,29.90,NNE,19,1.0,13.0,76,0.00,,---,0.00,VWS V14.00,2013-04-11 12:55:00,
2013-04-11 08:00:00,29.2,22.6,29.90,North,9,6.0,13.0,76,0.00,,---,0.00,VWS V14.00,2013-04-11 13:00:00,
2013-04-11 08:05:00,29.3,22.4,29.91,NNW,336,1.0,11.0,75,0.00,,---,0.00,VWS V14.00,2013-04-11 13:05:00,
2013-04-11 08:10:00,29.3,22.4,29.91,NNW,348,0.0,11.0,75,0.00,,---,0.00,VWS V14.00,2013-04-11 13:10:00,
2013-04-11 08:15:00,29.4,22.5,29.92,NNE,29,9.0,13.0,75,0.00,,---,0.00,VWS V14.00,2013-04-11 13:15:00,
2013-04-11 08:20:00,29.5,22.2,29.93,ENE,58,4.0,10.0,74,0.00,,---,0.00,VWS V14.00,2013-04-11 13:20:00,
2013-04-11 08:25:00,29.6,22.4,29.93,NE,38,5.0,13.0,74,0.00,,---,0.00,VWS V14.00,2013-04-11 13:25:00,
2013-04-11 08:30:00,29.6,22.4,29.92,NW,321,4.0,13.0,74,0.00,,---,0.00,VWS V14.00,2013-04-11 13:30:00,
2013-04-11 08:35:00,29.7,22.8,29.91,NE,46,4.0,9.0,75,0.00,,---,0.00,VWS V14.00,2013-04-11 13:35:00,
2013-04-11 08:40:00,29.8,22.9,29.91,NE,46,5.0,10.0,75,0.00,,---,0.00,VWS V14.00,2013-04-11 13:40:00,
2013-04-11 08:45:00,29.8,22.5,29.91,NNE,22,3.0,12.0,74,0.00,,---,0.00,VWS V14.00,2013-04-11 13:45:00,
2013-04-11 08:50:00,29.9,22.3,29.91,NE,49,1.0,3.0,73,0.00,,---,0.00,VWS V14.00,2013-04-11 13:50:00,
2013-04-11 08:55:00,30.1,22.5,29.91,NNE,22,4.0,12.0,73,0.00,,---,0.00,VWS V14.00,2013-04-11 13:55:00,
2013-04-11 09:00:00,30.1,22.5,29.91,NNW,346,3.0,14.0,73,0.00,,---,0.00,VWS V14.00,2013-04-11 14:00:00,
2013-04-11 09:05:00,30.2,22.6,29.92,ENE,61,2.0,5.0,73,0.00,,---,0.00,VWS V14.00,2013-04-11 14:05:00,
2013-04-11 09:10:00,30.3,22.7,29.92,NNE,30,6.0,9.0,73,0.00,,---,0.00,VWS V14.00,2013-04-11 14:10:00,
2013-04-11 09:15:00,30.3,22.4,29.92,NE,53,3.0,9.0,72,0.00,,---,0.00,VWS V14.00,2013-04-11 14:15:00,
2013-04-11 09:20:00,30.3,22.0,29.90,NNW,348,11.0,12.0,71,0.00,,---,0.00,VWS V14.00,2013-04-11 14:20:00,
2013-04-11 09:25:00,30.4,22.5,29.91,ENE,59,0.0,12.0,72,0.00,,---,0.00,VWS V14.00,2013-04-11 14:25:00,
2013-04-11 09:30:00,30.5,22.2,29.91,East,86,4.0,15.0,71,0.00,,---,0.00,VWS V14.00,2013-04-11 14:30:00,
2013-04-11 09:35:00,30.5,22.6,29.91,NNE,13,9.0,10.0,72,0.00,,---,0.00,VWS V14.00,2013-04-11 14:35:00,
2013-04-11 09:40:00,30.7,22.8,29.91,NNE,18,4.0,12.0,72,0.00,,---,0.00,VWS V14.00,2013-04-11 14:40:00,
2013-04-11 09:45:00,30.7,22.4,29.92,North,349,2.0,12.0,71,0.00,,---,0.00,VWS V14.00,2013-04-11 14:45:00,
2013-04-11 09:50:00,30.7,22.4,29.91,NE,53,1.0,7.0,71,0.00,,---,0.00,VWS V14.00,2013-04-11 14:50:00,
2013-04-11 09:55:00,30.7,22.4,29.92,NNW,348,2.0,9.0,71,0.00,,---,0.00,VWS V14.00,2013-04-11 14:55:00,
2013-04-11 10:00:00,30.8,22.5,29.92,NNE,19,7.0,9.0,71,0.00,,---,0.00,VWS V14.00,2013-04-11 15:00:00,
2013-04-11 10:05:00,30.8,22.2,29.92,ENE,65,2.0,11.0,70,0.00,,---,0.00,VWS V14.00,2013-04-11 15:05:00,
2013-04-11 10:10:00,30.8,22.2,29.92,NE,54,2.0,11.0,70,0.00,,---,0.00,VWS V14.00,2013-04-11 15:10:00,
2013-04-11 10:15:00,30.8,21.9,29.92,WNW,298,0.0,15.0,69,0.00,,---,0.00,VWS V14.00,2013-04-11 15:15:00,
2013-04-11 10:20:00,30.9,22.3,29.93,NNE,30,6.0,6.0,70,0.00,,---,0.00,VWS V14.00,2013-04-11 15:20:00,
2013-04-11 10:25:00,31.0,22.4,29.94,NNE,22,2.0,11.0,70,0.00,,---,0.00,VWS V14.00,2013-04-11 15:25:00,
2013-04-11 10:30:00,31.2,22.2,29.94,NNE,18,1.0,12.0,69,0.00,,---,0.00,VWS V14.00,2013-04-11 15:30:00,
2013-04-11 10:35:00,31.3,22.7,29.96,NE,45,1.0,7.0,70,0.00,,---,0.00,VWS V14.00,2013-04-11 15:35:00,
2013-04-11 10:40:00,31.5,22.5,29.96,North,11,6.0,12.0,69,0.00,,---,0.00,VWS V14.00,2013-04-11 15:40:00,
2013-04-11 10:45:00,31.5,22.2,29.95,NNW,336,3.0,14.0,68,0.00,,---,0.00,VWS V14.00,2013-04-11 15:45:00,
2013-04-11 10:50:00,31.6,22.3,29.96,North,9,4.0,10.0,68,0.00,,---,0.00,VWS V14.00,2013-04-11 15:50:00,
2013-04-11 10:55:00,31.7,22.4,29.95,ENE,61,4.0,10.0,68,0.00,,---,0.00,VWS V14.00,2013-04-11 15:55:00,
2013-04-11 11:00:00,31.8,22.5,29.94,NE,48,2.0,12.0,68,0.00,,---,0.00,VWS V14.00,2013-04-11 16:00:00,
2013-04-11 11:05:00,31.8,22.5,29.94,NNW,331,4.0,5.0,68,0.00,,---,0.00,VWS V14.00,2013-04-11 16:05:00,
2013-04-11 11:10:00,31.8,22.5,29.93,NE,42,5.0,12.0,68,0.00,,---,0.00,VWS V14.00,2013-04-11 16:10:00,
2013-04-11 11:15:00,31.8,22.5,29.93,ENE,71,4.0,12.0,68,0.00,,---,0.00,VWS V14.00,2013-04-11 16:15:00,
2013-04-11 11:20:00,31.8,22.1,29.92,NE,51,3.0,18.0,67,0.00,,---,0.00,VWS V14.00,2013-04-11 16:20:00,
2013-04-11 11:25:00,31.9,22.5,29.91,NNW,336,8.0,18.0,68,0.00,,---,0.00,VWS V14.00,2013-04-11 16:25:00,
2013-04-11 11:30:00,32.0,23.0,29.92,East,91,8.0,18.0,69,0.00,,---,0.00,VWS V14.00,2013-04-11 16:30:00,
2013-04-11 11:35:00,31.9,22.9,29.94,NNW,341,2.0,10.0,69,0.00,,---,0.00,VWS V14.00,2013-04-11 16:35:00,
2013-04-11 11:40:00,31.5,23.5,29.94,NE,43,6.0,12.0,72,0.00,,---,0.00,VWS V14.00,2013-04-11 16:40:00,
2013-04-11 11:45:00,31.0,24.6,29.95,ENE,61,7.0,16.0,77,0.00,,---,0.00,VWS V14.00,2013-04-11 16:45:00,
2013-04-11 11:50:00,30.2,24.5,29.94,NE,53,7.0,14.0,79,0.00,,---,0.00,VWS V14.00,2013-04-11 16:50:00,
2013-04-11 11:55:00,29.9,24.8,29.93,NNE,26,0.0,14.0,81,0.00,,---,0.00,VWS V14.00,2013-04-11 16:55:00,
2013-04-11 12:00:00,29.9,24.5,29.92,NNE,25,6.0,14.0,80,0.00,,---,0.00,VWS V14.00,2013-04-11 17:00:00,
2013-04-11 12:05:00,30.0,24.6,29.92,NE,42,0.0,7.0,80,0.00,,---,0.00,VWS V14.00,2013-04-11 17:05:00,
2013-04-11 12:10:00,30.1,24.7,29.91,NE,51,3.0,14.0,80,0.00,,---,0.00,VWS V14.00,2013-04-11 17:10:00,
2013-04-11 12:15:00,30.4,24.4,29.91,ENE,59,5.0,14.0,78,0.00,,---,0.00,VWS V14.00,2013-04-11 17:15:00,
2013-04-11 12:20:00,30.6,23.6,29.91,NNE,30,5.0,15.0,75,0.00,,---,0.00,VWS V14.00,2013-04-11 17:20:00,
2013-04-11 12:25:00,30.8,23.8,29.92,NNW,348,1.0,15.0,75,0.00,,---,0.00,VWS V14.00,2013-04-11 17:25:00,
2013-04-11 12:30:00,31.1,23.8,29.91,NNW,330,6.0,15.0,74,0.00,,---,0.00,VWS V14.00,2013-04-11 17:30:00,
2013-04-11 12:35:00,31.4,23.4,29.90,NE,43,3.0,6.0,72,0.00,,---,0.00,VWS V14.00,2013-04-11 17:35:00,
2013-04-11 12:40:00,31.6,22.6,29.90,NNE,31,2.0,15.0,69,0.00,,---,0.00,VWS V14.00,2013-04-11 17:40:00,
2013-04-11 12:45:00,31.8,22.5,29.90,NE,47,7.0,15.0,68,0.00,,---,0.00,VWS V14.00,2013-04-11 17:45:00,
2013-04-11 12:50:00,31.8,22.8,29.90,North,355,3.0,9.0,69,0.00,,---,0.00,VWS V14.00,2013-04-11 17:50:00,
2013-04-11 12:55:00,31.7,22.4,29.91,NNE,22,3.0,11.0,68,0.00,,---,0.00,VWS V14.00,2013-04-11 17:55:00,
2013-04-11 13:00:00,31.7,22.0,29.89,NW,325,9.0,19.0,67,0.00,,---,0.00,VWS V14.00,2013-04-11 18:00:00,
2013-04-11 13:05:00,31.7,22.0,29.90,NNE,27,5.0,10.0,67,0.00,,---,0.00,VWS V14.00,2013-04-11 18:05:00,
2013-04-11 13:10:00,31.8,22.5,29.91,North,355,6.0,11.0,68,0.00,,---,0.00,VWS V14.00,2013-04-11 18:10:00,
2013-04-11 13:15:00,31.7,23.4,29.90,NE,40,4.0,16.0,71,0.00,,---,0.00,VWS V14.00,2013-04-11 18:15:00,
2013-04-11 13:20:00,31.5,23.5,29.91,WNW,296,6.0,6.0,72,0.00,,---,0.00,VWS V14.00,2013-04-11 18:20:00,
2013-04-11 13:25:00,31.4,23.8,29.90,North,360,10.0,15.0,73,0.00,,---,0.00,VWS V14.00,2013-04-11 18:25:00,
2013-04-11 13:30:00,31.3,23.7,29.90,NNE,30,3.0,15.0,73,0.00,,---,0.00,VWS V14.00,2013-04-11 18:30:00,
2013-04-11 13:35:00,31.2,23.9,29.90,NNE,31,0.0,5.0,74,0.00,,---,0.00,VWS V14.00,2013-04-11 18:35:00,
2013-04-11 13:40:00,31.2,23.9,29.90,NNE,25,3.0,12.0,74,0.00,,---,0.00,VWS V14.00,2013-04-11 18:40:00,
2013-04-11 13:45:00,31.2,24.2,29.90,NNE,16,2.0,12.0,75,0.00,,---,0.00,VWS V14.00,2013-04-11 18:45:00,
2013-04-11 13:50:00,31.4,24.4,29.91,NE,43,1.0,6.0,75,0.00,,---,0.00,VWS V14.00,2013-04-11 18:50:00,
2013-04-11 13:55:00,31.5,24.2,29.91,NE,41,4.0,10.0,74,0.00,,---,0.00,VWS V14.00,2013-04-11 18:55:00,
2013-04-11 14:00:00,31.5,24.5,29.91,NNE,19,4.0,10.0,75,0.00,,---,0.00,VWS V14.00,2013-04-11 19:00:00,
2013-04-11 14:05:00,31.6,24.3,29.90,North,11,0.0,6.0,74,0.00,,---,0.00,VWS V14.00,2013-04-11 19:05:00,
2013-04-11 14:10:00,31.9,24.6,29.89,NE,36,3.0,6.0,74,0.00,,---,0.00,VWS V14.00,2013-04-11 19:10:00,
2013-04-11 14:15:00,32.1,23.8,29.90,NE,42,3.0,9.0,71,0.00,,---,0.00,VWS V14.00,2013-04-11 19:15:00,
2013-04-11 14:20:00,32.4,23.0,29.90,NE,46,3.0,9.0,68,0.00,,---,0.00,VWS V14.00,2013-04-11 19:20:00,
2013-04-11 14:25:00,32.8,23.1,29.90,North,351,7.0,13.0,67,0.00,,---,0.00,VWS V14.00,2013-04-11 19:25:00,
2013-04-11 14:30:00,33.0,22.5,29.89,NNE,15,12.0,17.0,65,0.00,,---,0.00,VWS V14.00,2013-04-11 19:30:00,
2013-04-11 14:35:00,33.2,22.0,29.89,North,11,10.0,13.0,63,0.00,,---,0.00,VWS V14.00,2013-04-11 19:35:00,
2013-04-11 14:40:00,33.4,22.5,29.89,NNE,21,5.0,13.0,64,0.00,,---,0.00,VWS V14.00,2013-04-11 19:40:00,
2013-04-11 14:45:00,33.3,22.1,29.88,North,9,4.0,16.0,63,0.00,,---,0.00,VWS V14.00,2013-04-11 19:45:00,
2013-04-11 14:50:00,33.4,22.2,29.88,NE,37,2.0,12.0,63,0.00,,---,0.00,VWS V14.00,2013-04-11 19:50:00,
2013-04-11 14:55:00,33.5,22.3,29.87,NNE,24,4.0,12.0,63,0.00,,---,0.00,VWS V14.00,2013-04-11 19:55:00,
2013-04-11 15:00:00,33.6,22.0,29.86,NNW,329,5.0,12.0,62,0.00,,---,0.00,VWS V14.00,2013-04-11 20:00:00,
2013-04-11 15:05:00,33.8,21.4,29.86,NNE,29,15.0,16.0,60,0.00,,---,0.00,VWS V14.00,2013-04-11 20:05:00,
2013-04-11 15:10:00,33.8,21.0,29.85,NNE,30,5.0,16.0,59,0.00,,---,0.00,VWS V14.00,2013-04-11 20:10:00,
2013-04-11 15:15:00,33.9,21.9,29.86,NNE,12,1.0,16.0,61,0.00,,---,0.00,VWS V14.00,2013-04-11 20:15:00,
2013-04-11 15:20:00,34.0,21.2,29.86,North,360,2.0,12.0,59,0.00,,---,0.01,VWS V14.00,2013-04-11 20:20:00,
2013-04-11 15:25:00,33.7,20.9,29.86,North,5,6.0,13.0,59,0.00,,---,0.01,VWS V14.00,2013-04-11 20:25:00,
2013-04-11 15:30:00,33.4,20.6,29.85,NNE,22,4.0,19.0,59,0.00,,---,0.01,VWS V14.00,2013-04-11 20:30:00,
2013-04-11 15:35:00,33.3,20.5,29.86,NNE,30,2.0,12.0,59,0.00,,---,0.01,VWS V14.00,2013-04-11 20:35:00,
2013-04-11 15:40:00,33.3,20.9,29.86,ENE,65,7.0,12.0,60,0.00,,---,0.01,VWS V14.00,2013-04-11 20:40:00,
2013-04-11 15:45:00,33.1,19.9,29.86,NE,40,7.0,12.0,58,0.00,,---,0.01,VWS V14.00,2013-04-11 20:45:00,
2013-04-11 15:50:00,32.9,20.2,29.86,ENE,67,7.0,14.0,59,0.00,,---,0.01,VWS V14.00,2013-04-11 20:50:00,
2013-04-11 15:55:00,32.9,19.8,29.85,ENE,59,5.0,14.0,58,0.00,,---,0.01,VWS V14.00,2013-04-11 20:55:00,
2013-04-11 16:00:00,33.1,19.5,29.85,NW,326,12.0,14.0,57,0.00,,---,0.01,VWS V14.00,2013-04-11 21:00:00,
2013-04-11 16:05:00,33.2,20.4,29.85,NNW,347,12.0,12.0,59,0.00,,---,0.01,VWS V14.00,2013-04-11 21:05:00,
2013-04-11 16:10:00,33.1,19.1,29.84,NE,37,4.0,14.0,56,0.00,,---,0.01,VWS V14.00,2013-04-11 21:10:00,
2013-04-11 16:15:00,33.0,18.6,29.85,NNE,31,3.0,14.0,55,0.00,,---,0.01,VWS V14.00,2013-04-11 21:15:00,
2013-04-11 16:20:00,33.0,18.6,29.85,NNE,22,6.0,6.0,55,0.00,,---,0.01,VWS V14.00,2013-04-11 21:20:00,
2013-04-11 16:25:00,33.0,18.6,29.84,NNW,347,13.0,17.0,55,0.00,,---,0.01,VWS V14.00,2013-04-11 21:25:00,
2013-04-11 16:30:00,33.0,17.3,29.84,ENE,59,2.0,20.0,52,0.00,,---,0.01,VWS V14.00,2013-04-11 21:30:00,
2013-04-11 16:35:00,32.9,17.7,29.83,NNE,18,12.0,16.0,53,0.00,,---,0.01,VWS V14.00,2013-04-11 21:35:00,
2013-04-11 16:40:00,32.9,18.1,29.82,NE,49,3.0,16.0,54,0.00,,---,0.01,VWS V14.00,2013-04-11 21:40:00,
2013-04-11 16:45:00,32.8,18.0,29.83,NE,53,6.0,16.0,54,0.00,,---,0.01,VWS V14.00,2013-04-11 21:45:00,
2013-04-11 16:50:00,32.7,17.5,29.83,ENE,62,2.0,13.0,53,0.00,,---,0.01,VWS V14.00,2013-04-11 21:50:00,
2013-04-11 16:55:00,32.6,17.8,29.84,NE,47,2.0,17.0,54,0.00,,---,0.01,VWS V14.00,2013-04-11 21:55:00,
2013-04-11 17:00:00,32.5,17.7,29.84,ENE,68,1.0,17.0,54,0.00,,---,0.01,VWS V14.00,2013-04-11 22:00:00,
2013-04-11 17:05:00,32.5,17.3,29.83,North,5,10.0,10.0,53,0.00,,---,0.01,VWS V14.00,2013-04-11 22:05:00,
2013-04-11 17:10:00,32.4,17.6,29.84,NE,55,3.0,17.0,54,0.00,,---,0.01,VWS V14.00,2013-04-11 22:10:00,
2013-04-11 17:15:00,32.3,17.5,29.83,NE,37,9.0,17.0,54,0.00,,---,0.01,VWS V14.00,2013-04-11 22:15:00,
2013-04-11 17:20:00,32.2,17.0,29.83,NW,317,4.0,11.0,53,0.00,,---,0.01,VWS V14.00,2013-04-11 22:20:00,
2013-04-11 17:25:00,32.0,16.8,29.83,NE,49,2.0,11.0,53,0.00,,---,0.01,VWS V14.00,2013-04-11 22:25:00,
2013-04-11 17:30:00,31.9,16.7,29.84,North,5,9.0,13.0,53,0.00,,---,0.01,VWS V14.00,2013-04-11 22:30:00,
2013-04-11 17:35:00,31.7,17.0,29.84,NNE,23,7.0,14.0,54,0.00,,---,0.01,VWS V14.00,2013-04-11 22:35:00,
2013-04-11 17:40:00,31.7,17.0,29.84,East,84,4.0,14.0,54,0.00,,---,0.01,VWS V14.00,2013-04-11 22:40:00,
2013-04-11 17:45:00,31.6,16.5,29.85,NE,55,6.0,14.0,53,0.00,,---,0.01,VWS V14.00,2013-04-11 22:45:00,
2013-04-11 17:50:00,31.6,16.9,29.85,NE,56,3.0,4.0,54,0.00,,---,0.01,VWS V14.00,2013-04-11 22:50:00,
2013-04-11 17:55:00,31.5,16.4,29.85,NNE,32,2.0,12.0,53,0.00,,---,0.01,VWS V14.00,2013-04-11 22:55:00,
2013-04-11 18:00:00,31.4,16.7,29.85,NE,49,8.0,17.0,54,0.00,,---,0.01,VWS V14.00,2013-04-11 23:00:00,
2013-04-11 18:05:00,31.2,17.8,29.85,SW,226,2.0,17.0,57,0.00,,---,0.01,VWS V14.00,2013-04-11 23:05:00,
2013-04-11 18:10:00,30.8,17.8,29.86,NNE,12,3.0,17.0,58,0.00,,---,0.01,VWS V14.00,2013-04-11 23:10:00,
2013-04-11 18:15:00,30.6,18.0,29.86,NNE,22,1.0,17.0,59,0.00,,---,0.01,VWS V14.00,2013-04-11 23:15:00,
2013-04-11 18:20:00,30.6,17.2,29.85,NNE,30,1.0,11.0,57,0.00,,---,0.01,VWS V14.00,2013-04-11 23:20:00,
2013-04-11 18:25:00,30.5,17.5,29.86,NNE,31,7.0,11.0,58,0.00,,---,0.01,VWS V14.00,2013-04-11 23:25:00,
2013-04-11 18:30:00,30.4,19.3,29.86,ENE,71,0.0,16.0,63,0.00,,---,0.01,VWS V14.00,2013-04-11 23:30:00,
2013-04-11 18:35:00,30.0,20.4,29.87,NNE,29,2.0,10.0,67,0.00,,---,0.01,VWS V14.00,2013-04-11 23:35:00,
2013-04-11 18:40:00,29.4,21.2,29.87,ENE,57,4.0,11.0,71,0.00,,---,0.01,VWS V14.00,2013-04-11 23:40:00,
2013-04-11 18:45:00,29.0,20.8,29.86,NNW,348,10.0,14.0,71,0.00,,---,0.01,VWS V14.00,2013-04-11 23:45:00,
2013-04-11 18:50:00,28.8,20.6,29.86,NE,36,2.0,12.0,71,0.00,,---,0.01,VWS V14.00,2013-04-11 23:50:00,
2013-04-11 18:55:00,28.8,20.6,29.86,North,360,2.0,12.0,71,0.00,,---,0.01,VWS V14.00,2013-04-11 23:55:00,
2013-04-11 19:00:00,28.8,20.6,29.86,NNE,30,3.0,12.0,71,0.00,,---,0.01,VWS V14.00,2013-04-12 00:00:00,
2013-04-11 19:05:00,28.8,20.9,29.85,NNE,24,2.0,7.0,72,0.00,,---,0.01,VWS V14.00,2013-04-12 00:05:00,
2013-04-11 19:10:00,28.7,20.8,29.85,ENE,59,1.0,7.0,72,0.00,,---,0.01,VWS V14.00,2013-04-12 00:10:00,
2013-04-11 19:15:00,28.6,20.7,29.84,NNW,328,2.0,13.0,72,0.00,,---,0.01,VWS V14.00,2013-04-12 00:15:00,
2013-04-11 19:20:00,28.4,20.9,29.84,ENE,59,5.0,17.0,73,0.00,,---,0.01,VWS V14.00,2013-04-12 00:20:00,
2013-04-11 19:25:00,28.2,21.0,29.83,NNE,19,5.0,17.0,74,0.00,,---,0.01,VWS V14.00,2013-04-12 00:25:00,
2013-04-11 19:30:00,28.0,21.4,29.83,NE,55,2.0,17.0,76,0.00,,---,0.01,VWS V14.00,2013-04-12 00:30:00,
2013-04-11 19:35:00,27.9,21.9,29.83,ENE,67,5.0,10.0,78,0.00,,---,0.01,VWS V14.00,2013-04-12 00:35:00,
2013-04-11 19:40:00,27.6,22.0,29.82,North,11,13.0,13.0,79,0.00,,---,0.01,VWS V14.00,2013-04-12 00:40:00,
2013-04-11 19:45:00,27.3,22.2,29.82,NNW,333,3.0,14.0,81,0.00,,---,0.01,VWS V14.00,2013-04-12 00:45:00,
2013-04-11 19:50:00,26.9,22.7,29.82,North,355,4.0,6.0,84,0.00,,---,0.01,VWS V14.00,2013-04-12 00:50:00,
2013-04-11 19:55:00,26.5,22.9,29.81,NNE,31,2.0,9.0,86,0.00,,---,0.01,VWS V14.00,2013-04-12 00:55:00,
2013-04-11 20:00:00,26.3,23.0,29.80,NNE,13,0.0,13.0,87,0.00,,---,0.01,VWS V14.00,2013-04-12 01:00:00,
2013-04-11 20:05:00,26.1,22.8,29.80,NNE,32,3.0,18.0,87,0.00,,---,0.01,VWS V14.00,2013-04-12 01:05:00,
2013-04-11 20:10:00,26.1,23.0,29.79,ENE,64,3.0,18.0,88,0.00,,---,0.01,VWS V14.00,2013-04-12 01:10:00,
2013-04-11 20:15:00,26.0,22.9,29.79,NNW,340,5.0,18.0,88,0.00,,---,0.01,VWS V14.00,2013-04-12 01:15:00,
2013-04-11 20:20:00,26.0,22.9,29.79,North,5,6.0,6.0,88,0.00,,---,0.01,VWS V14.00,2013-04-12 01:20:00,
2013-04-11 20:25:00,26.0,22.9,29.79,NE,36,3.0,12.0,88,0.00,,---,0.01,VWS V14.00,2013-04-12 01:25:00,
2013-04-11 20:30:00,26.0,22.9,29.79,North,5,1.0,12.0,88,0.00,,---,0.01,VWS V14.00,2013-04-12 01:30:00,
2013-04-11 20:35:00,26.0,22.9,29.79,NNE,26,8.0,11.0,88,0.00,,---,0.01,VWS V14.00,2013-04-12 01:35:00,
2013-04-11 20:40:00,26.0,22.7,29.79,North,355,3.0,12.0,87,0.00,,---,0.01,VWS V14.00,2013-04-12 01:40:00,
2013-04-11 20:45:00,26.0,22.7,29.79,NE,54,3.0,12.0,87,0.00,,---,0.01,VWS V14.00,2013-04-12 01:45:00,
2013-04-11 20:50:00,26.1,22.5,29.79,NNE,17,0.0,7.0,86,0.00,,---,0.01,VWS V14.00,2013-04-12 01:50:00,
2013-04-11 20:55:00,26.1,22.5,29.79,NE,50,3.0,7.0,86,0.00,,---,0.01,VWS V14.00,2013-04-12 01:55:00,
2013-04-11 21:00:00,26.2,22.6,29.79,NNE,13,2.0,7.0,86,0.00,,---,0.01,VWS V14.00,2013-04-12 02:00:00,
2013-04-11 21:05:00,26.3,22.4,29.79,NE,55,0.0,10.0,85,0.00,,---,0.01,VWS V14.00,2013-04-12 02:05:00,
2013-04-11 21:10:00,26.5,22.0,29.79,ENE,74,4.0,15.0,83,0.00,,---,0.01,VWS V14.00,2013-04-12 02:10:00,
2013-04-11 21:15:00,26.7,22.0,29.80,NNE,33,2.0,15.0,82,0.00,,---,0.01,VWS V14.00,2013-04-12 02:15:00,
2013-04-11 21:20:00,26.7,22.0,29.80,NNW,329,6.0,12.0,82,0.00,,---,0.01,VWS V14.00,2013-04-12 02:20:00,
2013-04-11 21:25:00,26.6,22.4,29.80,ENE,74,3.0,12.0,84,0.00,,---,0.01,VWS V14.00,2013-04-12 02:25:00,
2013-04-11 21:30:00,26.4,22.5,29.80,North,360,2.0,13.0,85,0.00,,---,0.01,VWS V14.00,2013-04-12 02:30:00,
2013-04-11 21:35:00,26.3,22.7,29.80,NE,52,2.0,8.0,86,0.00,,---,0.01,VWS V14.00,2013-04-12 02:35:00,
2013-04-11 21:40:00,26.1,22.8,29.81,NNE,23,1.0,9.0,87,0.00,,---,0.01,VWS V14.00,2013-04-12 02:40:00,
2013-04-11 21:45:00,26.0,23.2,29.80,NNE,27,1.0,10.0,89,0.00,,---,0.01,VWS V14.00,2013-04-12 02:45:00,
2013-04-11 21:50:00,25.8,23.3,29.80,NNE,32,3.0,3.0,90,0.00,,---,0.01,VWS V14.00,2013-04-12 02:50:00,
2013-04-11 21:55:00,25.7,23.2,29.80,NE,42,0.0,7.0,90,0.00,,---,0.01,VWS V14.00,2013-04-12 02:55:00,
2013-04-11 22:00:00,25.6,23.3,29.79,North,11,7.0,12.0,91,0.00,,---,0.01,VWS V14.00,2013-04-12 03:00:00,
2013-04-11 22:05:00,25.5,23.2,29.78,NNE,18,3.0,6.0,91,0.00,,---,0.01,VWS V14.00,2013-04-12 03:05:00,
2013-04-11 22:10:00,25.4,23.4,29.79,North,5,0.0,6.0,92,0.00,,---,0.01,VWS V14.00,2013-04-12 03:10:00,
2013-04-11 22:15:00,25.4,23.4,29.78,NNE,32,3.0,7.0,92,0.00,,---,0.01,VWS V14.00,2013-04-12 03:15:00,
2013-04-11 22:20:00,25.3,23.3,29.78,ENE,58,1.0,4.0,92,0.00,,---,0.01,VWS V14.00,2013-04-12 03:20:00,
2013-04-11 22:25:00,25.4,23.4,29.77,North,5,4.0,5.0,92,0.00,,---,0.01,VWS V14.00,2013-04-12 03:25:00,
2013-04-11 22:30:00,25.4,23.4,29.77,NE,49,3.0,7.0,92,0.00,,---,0.01,VWS V14.00,2013-04-12 03:30:00,
2013-04-11 22:35:00,25.3,23.3,29.77,NNW,344,3.0,4.0,92,0.00,,---,0.01,VWS V14.00,2013-04-12 03:35:00,
2013-04-11 22:40:00,25.3,23.3,29.77,NNE,12,4.0,7.0,92,0.00,,---,0.01,VWS V14.00,2013-04-12 03:40:00,
2013-04-11 22:45:00,25.3,23.3,29.77,NNW,339,1.0,7.0,92,0.00,,---,0.01,VWS V14.00,2013-04-12 03:45:00,
2013-04-11 22:50:00,25.3,23.3,29.77,NNE,16,0.0,4.0,92,0.00,,---,0.01,VWS V14.00,2013-04-12 03:50:00,
2013-04-11 22:55:00,25.3,23.6,29.77,NNE,17,0.0,6.0,93,0.00,,---,0.01,VWS V14.00,2013-04-12 03:55:00,
2013-04-11 23:00:00,25.3,23.6,29.77,NNW,339,3.0,6.0,93,0.00,,---,0.01,VWS V14.00,2013-04-12 04:00:00,
2013-04-11 23:05:00,25.3,23.6,29.77,North,360,1.0,6.0,93,0.00,,---,0.01,VWS V14.00,2013-04-12 04:05:00,
2013-04-11 23:10:00,25.3,23.6,29.77,NNW,344,3.0,6.0,93,0.00,,---,0.01,VWS V14.00,2013-04-12 04:10:00,
2013-04-11 23:15:00,25.3,23.6,29.77,North,350,0.0,6.0,93,0.00,,---,0.01,VWS V14.00,2013-04-12 04:15:00,
2013-04-11 23:20:00,25.4,23.7,29.77,NNE,26,2.0,2.0,93,0.00,,---,0.01,VWS V14.00,2013-04-12 04:20:00,
2013-04-11 23:25:00,25.4,23.7,29.77,NE,51,2.0,6.0,93,0.00,,---,0.01,VWS V14.00,2013-04-12 04:25:00,
2013-04-11 23:30:00,25.4,23.7,29.77,NNE,25,1.0,6.0,93,0.00,,---,0.01,VWS V14.00,2013-04-12 04:30:00,
2013-04-11 23:35:00,25.4,23.7,29.77,NNW,342,2.0,4.0,93,0.00,,---,0.01,VWS V14.00,2013-04-12 04:35:00,
2013-04-11 23:40:00,25.5,23.8,29.77,NNE,12,0.0,4.0,93,0.00,,---,0.01,VWS V14.00,2013-04-12 04:40:00,
2013-04-11 23:45:00,25.5,23.8,29.78,NE,43,0.0,4.0,93,0.00,,---,0.01,VWS V14.00,2013-04-12 04:45:00,
2013-04-11 23:50:00,25.5,23.8,29.77,North,5,0.0,2.0,93,0.00,,---,0.01,VWS V14.00,2013-04-12 04:50:00,
2013-04-11 23:55:00,25.5,23.8,29.78,North,5,0.0,2.0,93,0.00,,---,0.01,VWS V14.00,2013-04-12 04:55:00,